GAZELLE

Last updated on Wed Apr 24 2024 00:02:34 GMT+0000 (Coordinated Universal Time)

1 54023U 22127A 24114.51498968 .00000671 00000+0 21707-3 0 9993 2 54023 98.3429 110.0305 0014203 41.0618 319.1639 14.42056497 81240
UTC large
Height (km)
Speed (km/s)
/
Latitude / Longitude
Inclination (degrees)
Orbital Period (minutes)
Azimuth
Elevation
Range (km)
Doppler Factor

Next 0 passes for location: London (51.5072 / 0.1276)

Sorry there are no passes over London.
GAZELLE